Brno, Czech Republic

10:45 PM CET on January 24, 2017 (GMT +0100)
Turany

Weather History for LKTB - November, 2012

Change the Weather History Date:

Friday, November 30, 2012

  Actual Average Record
Temperature  
Mean Temperature 36 °F -  
Max Temperature 39 °F 35 °F - ()
Min Temperature 32 °F 27 °F - ()
Degree Days  
Heating Degree Days 30    
Moisture  
Dew Point 28 °F    
Average Humidity 69    
Maximum Humidity 81    
Minimum Humidity 51    
Precipitation  
Precipitation 0.00 in 0.04 in - ()
Sea Level Pressure  
Sea Level Pressure 29.65 in    
Wind  
Wind Speed 10 mph ()    
Max Wind Speed 18 mph    
Max Gust Speed -    
Visibility 7.0 miles    
Events Rain    
T = Trace of Precipitation, MM = Missing Value Source: Averaged Metar Reports

Daily Weather History Graph

Daily Weather History Graph

Search for Another Location

Airport or City:

Trip Planner

Search our weather history database for the weather conditions in past years. The results will help you decide how hot, cold, wet, or windy it might be!

Date:

Astronomy

Nov. 30, 2012 Rise Set
Actual Time 7:25 AM CET 3:58 PM CET
Civil Twilight 6:48 AM CET 4:34 PM CET
Nautical Twilight 6:09 AM CET 5:14 PM CET
Astronomical Twilight 5:30 AM CET 5:52 PM CET
Moon 5:37 PM CET (11/30) 8:44 AM CET (11/30)
Length of Visible Light 9h 45m
Length of Day
8h 32m
Full, 97% of the Moon is Illuminated
Nov 30
Full
Dec 6
Last Quarter
Dec 13
New
Dec 20
First Quarter
Dec 28
Full

Hourly Weather History & Observations

Time (CET) Temp. Windchill Dew Point Humidity Pressure Visibility Wind Dir Wind Speed Gust Speed Precip Events Conditions
12:00 AM 37.4 °F 29.8 °F 30.2 °F 75% 29.44 in 6.2 mi West 11.5 mph - N/A   Mostly Cloudy
12:30 AM 37.4 °F 29.3 °F 30.2 °F 75% 29.47 in 6.2 mi West 12.7 mph - N/A   Mostly Cloudy
1:00 AM 38 °F - 29 °F 62% 29.52 in 12 mi West 13.4 mph - -   Mostly Cloudy
1:00 AM 39.2 °F 31.2 °F 30.2 °F 70% 29.47 in 6.2 mi West 13.8 mph - N/A   Mostly Cloudy
1:30 AM 39.2 °F 32.0 °F 30.2 °F 70% 29.47 in 6.2 mi West 11.5 mph - N/A   Mostly Cloudy
2:00 AM 39.2 °F 31.6 °F 30.2 °F 70% 29.50 in 6.2 mi West 12.7 mph - N/A   Mostly Cloudy
2:30 AM 39.2 °F 31.2 °F 30.2 °F 70% 29.50 in 6.2 mi West 13.8 mph - N/A   Mostly Cloudy
3:00 AM 39.2 °F 32.5 °F 30.2 °F 70% 29.50 in 6.2 mi West 10.4 mph - N/A   Overcast
3:30 AM 37.4 °F 27.5 °F 28.4 °F 70% 29.50 in 6.2 mi WNW 18.4 mph - N/A   Mostly Cloudy
4:00 AM 37.4 °F 27.5 °F 28.4 °F 70% 29.50 in 6.2 mi WNW 18.4 mph - N/A   Scattered Clouds
4:30 AM 37.4 °F 29.3 °F 28.4 °F 70% 29.50 in 6.2 mi WNW 12.7 mph - N/A   Partly Cloudy
5:00 AM 35.6 °F 28.0 °F 28.4 °F 75% 29.53 in 6.2 mi WNW 10.4 mph - N/A   Mostly Cloudy
5:30 AM 37.4 °F 32.8 °F 28.4 °F 70% 29.53 in 6.2 mi WNW 5.8 mph - N/A   Mostly Cloudy
6:00 AM 37.4 °F 29.8 °F 26.6 °F 65% 29.56 in 6.2 mi WNW 11.5 mph - N/A   Mostly Cloudy
6:30 AM 37.4 °F 28.5 °F 26.6 °F 65% 29.56 in 6.2 mi WNW 15.0 mph - N/A   Mostly Cloudy
7:00 AM 38 °F - 27 °F 53% 29.62 in 19 mi WNW 13.4 mph - -   Overcast
7:00 AM 37.4 °F 29.3 °F 26.6 °F 65% 29.56 in 6.2 mi WNW 12.7 mph - N/A   Overcast
7:30 AM 37.4 °F 28.2 °F 26.6 °F 65% 29.59 in 6.2 mi WNW 16.1 mph - N/A   Overcast
8:00 AM 37.4 °F 29.8 °F 26.6 °F 65% 29.59 in 6.2 mi WNW 11.5 mph - N/A   Overcast
8:30 AM 37.4 °F 30.8 °F 28.4 °F 70% 29.59 in 6.2 mi WNW 9.2 mph - N/A   Mostly Cloudy
9:00 AM 37.4 °F 31.4 °F 28.4 °F 70% 29.62 in 6.2 mi WNW 8.1 mph - N/A   Mostly Cloudy
9:30 AM 37.4 °F 30.8 °F 28.4 °F 70% 29.62 in 6.2 mi WNW 9.2 mph - N/A   Mostly Cloudy
10:00 AM 37.4 °F 30.3 °F 28.4 °F 70% 29.65 in 6.2 mi West 10.4 mph - N/A   Mostly Cloudy
10:30 AM 37.4 °F 30.3 °F 28.4 °F 70% 29.65 in 6.2 mi WNW 10.4 mph - N/A   Mostly Cloudy
11:00 AM 37.4 °F 29.8 °F 28.4 °F 70% 29.65 in 6.2 mi West 11.5 mph - N/A   Mostly Cloudy
11:30 AM 37.4 °F 29.8 °F 28.4 °F 70% 29.68 in 6.2 mi West 11.5 mph - N/A   Overcast
12:00 PM 39.2 °F 32.5 °F 28.4 °F 65% 29.68 in 6.2 mi West 10.4 mph - N/A   Mostly Cloudy
12:30 PM 39.2 °F 30.8 °F 28.4 °F 65% 29.68 in 6.2 mi WNW 15.0 mph - N/A   Scattered Clouds
1:00 PM 39 °F - 27 °F 51% 29.72 in 25 mi WNW 13.4 mph - -   Overcast
1:00 PM 39.2 °F 32.0 °F 28.4 °F 65% 29.68 in 6.2 mi WNW 11.5 mph - N/A   Partly Cloudy
1:30 PM 39.2 °F 32.0 °F 28.4 °F 65% 29.68 in 6.2 mi WNW 11.5 mph - N/A   Scattered Clouds
2:00 PM 39.2 °F 33.0 °F 28.4 °F 65% 29.68 in 6.2 mi WNW 9.2 mph - N/A   Partly Cloudy
2:30 PM 39.2 °F 33.0 °F 28.4 °F 65% 29.68 in 6.2 mi WNW 9.2 mph - N/A   Partly Cloudy
3:00 PM 39.2 °F 33.0 °F 26.6 °F 61% 29.71 in 6.2 mi WNW 9.2 mph - N/A Rain Light Rain
3:30 PM 37.4 °F 31.4 °F 28.4 °F 70% 29.71 in 6.2 mi NNW 8.1 mph - N/A   Partly Cloudy
4:00 PM 37.4 °F 32.1 °F 28.4 °F 70% 29.71 in 6.2 mi NW 6.9 mph - N/A   Partly Cloudy
4:30 PM 37.4 °F 30.8 °F 26.6 °F 65% 29.74 in 6.2 mi NW 9.2 mph - N/A   Partly Cloudy
5:00 PM 37.4 °F 32.8 °F 28.4 °F 70% 29.74 in - WNW 5.8 mph - N/A   Clear
5:30 PM 37.4 °F 34.9 °F 28.4 °F 70% 29.74 in - WNW 3.5 mph - N/A   Clear
6:00 PM 37.4 °F 34.9 °F 28.4 °F 70% 29.74 in - WNW 3.5 mph - N/A   Clear
6:30 PM 37.4 °F 34.9 °F 28.4 °F 70% 29.77 in - WNW 3.5 mph - N/A   Clear
7:00 PM 36 °F - 28 °F 61% 29.83 in 16 mi West 6.7 mph - -   Partly Cloudy
7:00 PM 35.6 °F 31.7 °F 28.4 °F 75% 29.77 in - WNW 4.6 mph - N/A   Clear
7:30 PM 35.6 °F 31.7 °F 28.4 °F 75% 29.77 in - WNW 4.6 mph - N/A   Clear
8:00 PM 35.6 °F 31.7 °F 28.4 °F 75% 29.77 in - WNW 4.6 mph - N/A   Clear
8:30 PM 33.8 °F 29.6 °F 28.4 °F 81% 29.80 in - West 4.6 mph - N/A   Clear
9:00 PM 35.6 °F 29.9 °F 28.4 °F 75% 29.80 in - WNW 6.9 mph - N/A   Clear
9:30 PM 35.6 °F 31.7 °F 26.6 °F 70% 29.80 in - NW 4.6 mph - N/A   Clear
10:00 PM 33.8 °F 29.6 °F 28.4 °F 81% 29.80 in - West 4.6 mph - N/A   Clear
10:30 PM 33.8 °F 27.7 °F 26.6 °F 75% 29.83 in - WNW 6.9 mph - N/A   Clear
11:00 PM 32.0 °F 26.4 °F 26.6 °F 80% 29.83 in - West 5.8 mph - N/A   Clear
11:30 PM 33.8 °F 30.8 °F 26.6 °F 75% 29.83 in - West 3.5 mph - N/A   Clear